This is the latest recevied weather packets stored in our database for station/object WE0DX-1. If no packets are shown the sender has not sent any weather packets the latest 10 day(s).
| Time | Temp. | Humidity | Pressure | Rain* | Wind** | Luminosity | Snow |
|---|---|---|---|---|---|---|---|
| 1777646935 | 12.78° C | 53% | 1018.2 hPa | 0 mm | - | 469 W/m² | - |
| 1777646631 | 12.78° C | 50% | 1018 hPa | 0 mm | - | 445 W/m² | - |
| 1777646327 | 12.78° C | 53% | 1018.2 hPa | 0 mm | - | 425 W/m² | - |
| 1777646024 | 12.78° C | 53% | 1018.2 hPa | 0 mm | - | 404 W/m² | - |
| 1777645720 | 12.78° C | 56% | 1018.2 hPa | 0 mm | - | 383 W/m² | - |
| 1777645417 | 12.22° C | 57% | 1018.3 hPa | 0 mm | - | 353 W/m² | - |
| 1777645113 | 12.22° C | 59% | 1018.1 hPa | 0 mm | - | 341 W/m² | - |
| 1777644810 | 11.67° C | 62% | 1018.2 hPa | 0 mm | - | 338 W/m² | - |
| 1777644508 | 11.11° C | 61% | 1018.2 hPa | 0 mm | - | 310 W/m² | - |
| 1777644203 | 10.56° C | 62% | 1018.2 hPa | 0 mm | - | 291 W/m² | - |
| 1777643900 | 10.56° C | 65% | 1018.1 hPa | 0 mm | - | 273 W/m² | - |
| 1777643598 | 10° C | 66% | 1018.2 hPa | 0 mm | - | 117 W/m² | - |
| 1777643295 | 10° C | 64% | 1018.2 hPa | 0 mm | - | 211 W/m² | - |
| 1777642991 | 9.44° C | 69% | 1018.2 hPa | 0 mm | - | 225 W/m² | - |
| 1777642688 | 8.89° C | 71% | 1018.6 hPa | 0 mm | - | 89 W/m² | - |
| 1777642385 | 8.89° C | 72% | 1018.5 hPa | 0 mm | - | 85 W/m² | - |
| 1777642081 | 8.89° C | 70% | 1018.4 hPa | 0 mm | - | 50 W/m² | - |
| 1777641777 | 8.33° C | 71% | 1018.4 hPa | 0 mm | - | 83 W/m² | - |
| 1777641472 | 8.33° C | 71% | 1018.5 hPa | 0 mm | - | 54 W/m² | - |
| 1777641168 | 8.33° C | 69% | 1018.3 hPa | 0 mm | - | 124 W/m² | - |
| 1777640864 | 7.78° C | 74% | 1018.1 hPa | 0 mm | - | 50 W/m² | - |
| 1777640562 | 7.22° C | 77% | 1018.2 hPa | 0 mm | - | 51 W/m² | - |
| 1777640258 | 7.22° C | 77% | 1018.4 hPa | 0 mm | - | 43 W/m² | - |
| 1777639954 | 6.67° C | 78% | 1018.5 hPa | 0 mm | - | 37 W/m² | - |
| 1777639651 | 6.67° C | 78% | 1018.7 hPa | 0 mm | - | 35 W/m² | - |
* Rain latest hour (hover to see other rain measurements)
** Current wind speed in m/s (hover to see current wind gust speed)